Gardner, KS

9:03 AM CDT on August 25, 2016 (GMT -0500)
New Century Aircenter

Weather History for KIXD - September, 2012

Change the Weather History Date:

Tuesday, September 11, 2012

  Actual Average Record
Temperature  
Mean Temperature 73 °F -  
Max Temperature 89 °F 79 °F 102 °F (2000)
Min Temperature 57 °F 57 °F 48 °F (1997)
Cooling Degree Days 8    
Growing Degree Days 23 (Base 50)    
Moisture  
Dew Point 54 °F    
Average Humidity 56    
Maximum Humidity 84    
Minimum Humidity 27    
Precipitation  
Precipitation 0.00 in - - ()
Sea Level Pressure  
Sea Level Pressure 30.00 in    
Wind  
Wind Speed 11 mph (SSE)    
Max Wind Speed 23 mph    
Max Gust Speed 31 mph    
Visibility 10 miles    
Events      
Averages and records for this station are not official NWS values.
T = Trace of Precipitation, MM = Missing Value Source: NWS Daily Summary

Daily Weather History Graph

Daily Weather History Graph

Search for Another Location

Airport or City:

Trip Planner

Search our weather history database for the weather conditions in past years. The results will help you decide how hot, cold, wet, or windy it might be!

Date:

Astronomy

Sep. 11, 2012 Rise Set
Actual Time 6:57 AM CDT 7:33 PM CDT
Civil Twilight 6:31 AM CDT 8:00 PM CDT
Nautical Twilight 5:59 AM CDT 8:31 PM CDT
Astronomical Twilight 5:26 AM CDT 9:04 PM CDT
Moon 2:18 AM CDT (9/11) 4:42 PM CDT (9/11)
Length of Visible Light 13h 29m
Length of Day
12h 35m
Waning Crescent, 21% of the Moon is Illuminated
Sep 11
Waning Crescent
Sep 15
New
Sep 22
First Quarter
Sep 29
Full
Oct 8
Last Quarter

Hourly Weather History & Observations

Time (CDT) Temp. Heat Index Dew Point Humidity Pressure Visibility Wind Dir Wind Speed Gust Speed Precip Events Conditions
12:53 AM 64.0 °F - 52.0 °F 65% 30.01 in 10.0 mi SSE 8.1 mph - N/A   Clear
1:53 AM 64.0 °F - 53.1 °F 67% 30.00 in 10.0 mi SSE 9.2 mph - N/A   Clear
2:53 AM 62.1 °F - 53.1 °F 72% 30.00 in 10.0 mi SSE 9.2 mph - N/A   Clear
3:53 AM 61.0 °F - 53.1 °F 75% 30.01 in 10.0 mi South 9.2 mph - N/A   Clear
4:53 AM 60.1 °F - 53.1 °F 78% 30.01 in 10.0 mi South 9.2 mph - N/A   Clear
5:53 AM 57.9 °F - 53.1 °F 84% 30.02 in 10.0 mi SSE 9.2 mph - N/A   Clear
6:53 AM 57.9 °F - 53.1 °F 84% 30.03 in 10.0 mi SSE 10.4 mph - N/A   Clear
7:53 AM 61.0 °F - 54.0 °F 78% 30.04 in 10.0 mi SSE 11.5 mph - N/A   Clear
8:20 AM 62.6 °F - 55.4 °F 77% 30.07 in 10.0 mi South 10.4 mph - N/A   Partly Cloudy
8:53 AM 66.9 °F - 55.9 °F 68% 30.05 in 10.0 mi South 13.8 mph - N/A   Clear
9:53 AM 71.1 °F - 57.0 °F 61% 30.06 in 10.0 mi South 13.8 mph 23.0 mph N/A   Clear
10:53 AM 77.0 °F - 57.9 °F 52% 30.05 in 10.0 mi South 12.7 mph - N/A   Clear
11:53 AM 82.0 °F 81.6 °F 55.9 °F 41% 30.04 in 10.0 mi SSW 13.8 mph 21.9 mph N/A   Clear
12:53 PM 84.9 °F 83.6 °F 55.0 °F 36% 30.02 in 10.0 mi South 10.4 mph 19.6 mph N/A   Clear
1:53 PM 87.1 °F 84.9 °F 53.1 °F 31% 29.99 in 10.0 mi South 13.8 mph 23.0 mph N/A   Clear
2:53 PM 89.1 °F - 51.1 °F 27% 29.97 in 10.0 mi SSE 23.0 mph 31.1 mph N/A   Clear
3:53 PM 88.0 °F - 51.1 °F 28% 29.96 in 10.0 mi South 18.4 mph 28.8 mph N/A   Clear
4:53 PM 87.1 °F - 48.9 °F 27% 29.95 in 10.0 mi South 18.4 mph 27.6 mph N/A   Clear
6:53 PM 82.9 °F - 51.1 °F 33% 29.95 in 10.0 mi SSE 12.7 mph - N/A   Clear
7:53 PM 79.0 °F - 53.1 °F 40% 29.94 in 10.0 mi SSE 11.5 mph - N/A   Clear
8:53 PM 72.0 °F - 54.0 °F 53% 29.97 in 10.0 mi SSE 5.8 mph - N/A   Clear
9:53 PM 72.0 °F - 55.0 °F 55% 29.98 in 10.0 mi SSE 8.1 mph - N/A   Clear
10:53 PM 71.1 °F - 54.0 °F 55% 29.99 in 10.0 mi SSE 9.2 mph - N/A   Clear
11:53 PM 70.0 °F - 55.0 °F 59% 29.99 in 10.0 mi SSE 8.1 mph - N/A   Clear